| time (UTC) | temp F | wind direction | speed MPH | gust MPH | rain 1hr in | rain 24hr in | rain mn in | humidity % | barometer mb |
| 20260504060116 | 47 | 360 | 2.0 | 4.0 | 0.00 | 0.00 | 0.00 | 53 | 1009.0 |
| 20260504050532 | 49 | 360 | 5.0 | 6.0 | 0.00 | 0.00 | 0.00 | 50 | 1009.4 |
| 20260504045556 | 50 | 360 | 4.0 | 5.0 | 0.00 | 0.00 | 0.00 | 49 | 1009.3 |
| 20260504045058 | 50 | 360 | 2.0 | 9.0 | 0.00 | 0.00 | 0.00 | 48 | 1009.4 |
| 20260504044620 | 51 | 360 | 4.0 | 9.0 | 0.00 | 0.00 | 0.00 | 48 | 1009.4 |
| 20260504043616 | 53 | 360 | 5.0 | 6.0 | 0.00 | 0.00 | 0.00 | 45 | 1009.5 |
| 20260504043022 | 54 | 360 | 3.0 | 5.0 | 0.00 | 0.00 | 0.00 | 44 | 1009.4 |
| 20260504042545 | 54 | 360 | 1.0 | 6.0 | 0.00 | 0.00 | 0.00 | 44 | 1009.4 |
| 20260504042045 | 54 | 360 | 3.0 | 6.0 | 0.00 | 0.00 | 0.00 | 44 | 1009.5 |
| 20260504041023 | 55 | 360 | 0.0 | 0.0 | 0.00 | 0.00 | 0.00 | 43 | 1009.4 |
| 20260504040544 | 55 | 360 | 0.0 | 0.0 | 0.00 | 0.00 | 0.00 | 43 | 1009.4 |
| 20260504040031 | 55 | 360 | 0.0 | 0.0 | 0.00 | 0.00 | 0.00 | 43 | 1009.3 |
| 20260504035554 | 55 | 360 | 0.0 | 0.0 | 0.00 | 0.00 | 0.00 | 43 | 1009.3 |
| 20260504035035 | 55 | 360 | 0.0 | 0.0 | 0.00 | 0.00 | 0.00 | 42 | 1009.3 |
| 20260504034618 | 55 | 360 | 0.0 | 0.0 | 0.00 | 0.00 | 0.00 | 42 | 1009.3 |
| 20260504034038 | 56 | 360 | 0.0 | 0.0 | 0.00 | 0.00 | 0.00 | 41 | 1009.2 |
| 20260504033539 | 55 | 360 | 0.0 | 0.0 | 0.00 | 0.00 | 0.00 | 42 | 1009.2 |
| 20260504033041 | 55 | 360 | 0.0 | 0.0 | 0.00 | 0.00 | 0.00 | 42 | 1009.2 |
| 20260504032524 | 54 | 360 | 0.0 | 1.0 | 0.00 | 0.00 | 0.00 | 43 | 1009.1 |
| 20260504032046 | 54 | 360 | 0.0 | 4.0 | 0.00 | 0.00 | 0.00 | 43 | 1009.0 |
| 20260504031528 | 54 | 360 | 0.0 | 4.0 | 0.00 | 0.00 | 0.00 | 42 | 1009.0 |
| 20260504031030 | 55 | 360 | 2.0 | 3.0 | 0.00 | 0.00 | 0.00 | 42 | 1009.8 |
| 20260504030613 | 54 | 360 | 1.0 | 4.0 | 0.00 | 0.00 | 0.00 | 42 | 1009.8 |
| 20260504030054 | 55 | 360 | 3.0 | 6.0 | 0.00 | 0.00 | 0.00 | 42 | 1009.7 |
| 20260504025556 | 55 | 360 | 2.0 | 7.0 | 0.00 | 0.00 | 0.00 | 41 | 1009.6 |
| 20260504025058 | 56 | 360 | 5.0 | 7.0 | 0.00 | 0.00 | 0.00 | 41 | 1009.6 |
| 20260504024540 | 56 | 360 | 3.0 | 5.0 | 0.00 | 0.00 | 0.00 | 40 | 1009.5 |
| 20260504024123 | 56 | 360 | 3.0 | 6.0 | 0.00 | 0.00 | 0.00 | 40 | 1009.5 |
| 20260504023523 | 57 | 360 | 5.0 | 6.0 | 0.00 | 0.00 | 0.00 | 40 | 1009.5 |
| 20260504023026 | 58 | 360 | 0.0 | 1.0 | 0.00 | 0.00 | 0.00 | 39 | 1009.4 |
| 20260504022529 | 59 | 360 | 0.0 | 1.0 | 0.00 | 0.00 | 0.00 | 37 | 1009.3 |
| 20260504022112 | 61 | 360 | 0.0 | 0.0 | 0.00 | 0.00 | 0.00 | 35 | 1009.3 |
| 20260504021533 | 63 | 360 | 0.0 | 0.0 | 0.00 | 0.00 | 0.00 | 34 | 1009.3 |
| 20260504021035 | 65 | 360 | 0.0 | 0.0 | 0.00 | 0.00 | 0.00 | 32 | 1009.3 |
| 20260504020536 | 67 | 360 | 0.0 | 0.0 | 0.00 | 0.00 | 0.00 | 31 | 1009.3 |
| 20260504020022 | 70 | 360 | 0.0 | 0.0 | 0.00 | 0.00 | 0.00 | 28 | 1009.3 |
| 20260504015526 | 70 | 360 | 0.0 | 0.0 | 0.00 | 0.00 | 0.00 | 28 | 1009.4 |
| 20260504014527 | 71 | 360 | 0.0 | 0.0 | 0.00 | 0.00 | 0.00 | 27 | 1009.4 |
| 20260504014030 | 71 | 360 | 0.0 | 0.0 | 0.00 | 0.00 | 0.00 | 27 | 1009.5 |
| 20260504013611 | 71 | 360 | 0.0 | 0.0 | 0.00 | 0.00 | 0.00 | 27 | 1009.4 |
| 20260504013113 | 71 | 360 | 0.0 | 0.0 | 0.00 | 0.00 | 0.00 | 27 | 1009.5 |
| 20260504012532 | 71 | 360 | 0.0 | 1.0 | 0.00 | 0.00 | 0.00 | 27 | 1009.6 |
| 20260504012036 | 71 | 360 | 0.0 | 1.0 | 0.00 | 0.00 | 0.00 | 27 | 1009.5 |
| 20260504011618 | 71 | 360 | 0.0 | 0.0 | 0.00 | 0.00 | 0.00 | 27 | 1009.6 |
| 20260504011038 | 71 | 360 | 0.0 | 0.0 | 0.00 | 0.00 | 0.00 | 27 | 1009.6 |
| 20260504010540 | 71 | 360 | 0.0 | 3.0 | 0.00 | 0.00 | 0.00 | 27 | 1009.7 |
| 20260504010022 | 71 | 360 | 0.0 | 5.0 | 0.00 | 0.00 | 0.00 | 27 | 1009.7 |
| 20260504005545 | 71 | 360 | 2.0 | 7.0 | 0.00 | 0.00 | 0.00 | 27 | 1009.7 |
| 20260504005048 | 71 | 360 | 0.0 | 7.0 | 0.00 | 0.00 | 0.00 | 27 | 1009.7 |
| 20260504004530 | 71 | 360 | 0.0 | 5.0 | 0.00 | 0.00 | 0.00 | 27 | 1009.7 |
| 20260504004034 | 72 | 360 | 0.0 | 5.0 | 0.00 | 0.00 | 0.00 | 27 | 1009.7 |
| 20260504003536 | 71 | 360 | 1.0 | 4.0 | 0.00 | 0.00 | 0.00 | 27 | 1009.8 |
| 20260504003039 | 71 | 360 | 0.0 | 4.0 | 0.00 | 0.00 | 0.00 | 27 | 1009.9 |
| 20260504002622 | 71 | 360 | 0.0 | 11.0 | 0.00 | 0.00 | 0.00 | 27 | 1009.9 |
| 20260504002021 | 71 | 360 | 7.0 | 12.0 | 0.00 | 0.00 | 0.00 | 27 | 1010.0 |
| 20260504001604 | 72 | 360 | 2.0 | 12.0 | 0.00 | 0.00 | 0.00 | 27 | 1010.0 |
| 20260504001025 | 72 | 360 | 5.0 | 10.0 | 0.00 | 0.00 | 0.00 | 27 | 1010.1 |
| 20260504000527 | 72 | 360 | 0.0 | 9.0 | 0.00 | 0.00 | 0.00 | 26 | 1010.0 |
| 20260504000050 | 72 | 360 | 0.0 | 10.0 | 0.00 | 0.00 | 0.00 | 26 | 1010.1 |
| 20260503235531 | 72 | 360 | 1.0 | 12.0 | 0.00 | 0.00 | 0.00 | 26 | 1010.1 |
| 20260503235038 | 73 | 360 | 2.0 | 12.0 | 0.00 | 0.00 | 0.00 | 26 | 1010.1 |
| 20260503234600 | 73 | 360 | 2.0 | 10.0 | 0.00 | 0.00 | 0.00 | 25 | 1010.1 |
| 20260503234102 | 73 | 360 | 0.0 | 9.0 | 0.00 | 0.00 | 0.00 | 26 | 1010.1 |
| 20260503233619 | 73 | 360 | 5.0 | 9.0 | 0.00 | 0.00 | 0.00 | 26 | 1010.2 |
| 20260503233024 | 73 | 360 | 2.0 | 7.0 | 0.00 | 0.00 | 0.00 | 26 | 1010.2 |
| 20260503232606 | 73 | 360 | 0.0 | 0.0 | 0.00 | 0.00 | 0.00 | 25 | 1010.3 |
| 20260503232123 | 74 | 360 | 0.0 | 0.0 | 0.00 | 0.00 | 0.00 | 25 | 1010.4 |
| 20260503231542 | 74 | 360 | 0.0 | 0.0 | 0.00 | 0.00 | 0.00 | 25 | 1010.4 |
| 20260503231029 | 73 | 360 | 0.0 | 0.0 | 0.00 | 0.00 | 0.00 | 25 | 1010.5 |
| 20260503230551 | 73 | 360 | 0.0 | 1.0 | 0.00 | 0.00 | 0.00 | 26 | 1010.5 |
| 20260503230053 | 74 | 360 | 0.0 | 4.0 | 0.00 | 0.00 | 0.00 | 25 | 1010.5 |
| 20260503225535 | 74 | 360 | 0.0 | 5.0 | 0.00 | 0.00 | 0.00 | 25 | 1010.6 |
| 20260503225037 | 74 | 360 | 1.0 | 12.0 | 0.00 | 0.00 | 0.00 | 25 | 1010.6 |
| 20260503224539 | 73 | 360 | 3.0 | 12.0 | 0.00 | 0.00 | 0.00 | 26 | 1010.6 |
| 20260503224101 | 73 | 360 | 3.0 | 12.0 | 0.00 | 0.00 | 0.00 | 26 | 1010.6 |
| 20260503223522 | 73 | 360 | 0.0 | 12.0 | 0.00 | 0.00 | 0.00 | 26 | 1010.7 |
| 20260503223105 | 73 | 360 | 7.0 | 14.0 | 0.00 | 0.00 | 0.00 | 26 | 1010.8 |
| 20260503222545 | 72 | 360 | 0.0 | 14.0 | 0.00 | 0.00 | 0.00 | 26 | 1010.9 |
| 20260503222046 | 72 | 360 | 0.0 | 10.0 | 0.00 | 0.00 | 0.00 | 26 | 1010.9 |
| 20260503221527 | 72 | 360 | 0.0 | 11.0 | 0.00 | 0.00 | 0.00 | 26 | 1011.0 |
| 20260503221111 | 72 | 360 | 8.0 | 11.0 | 0.00 | 0.00 | 0.00 | 26 | 1011.0 |
| 20260503220550 | 72 | 360 | 0.0 | 14.0 | 0.00 | 0.00 | 0.00 | 26 | 1011.0 |
| 20260503220031 | 72 | 360 | 9.0 | 14.0 | 0.00 | 0.00 | 0.00 | 26 | 1011.0 |
| 20260503215534 | 72 | 360 | 0.0 | 7.0 | 0.00 | 0.00 | 0.00 | 26 | 1011.2 |
| 20260503214536 | 72 | 360 | 0.0 | 1.0 | 0.00 | 0.00 | 0.00 | 26 | 1011.4 |
| 20260503214039 | 72 | 360 | 0.0 | 0.0 | 0.00 | 0.00 | 0.00 | 26 | 1011.4 |
| 20260503213540 | 72 | 360 | 0.0 | 0.0 | 0.00 | 0.00 | 0.00 | 26 | 1011.5 |
| 20260503213043 | 71 | 360 | 0.0 | 0.0 | 0.00 | 0.00 | 0.00 | 26 | 1011.6 |
| 20260503212525 | 72 | 360 | 0.0 | 3.0 | 0.00 | 0.00 | 0.00 | 25 | 1011.7 |
| 20260503212027 | 72 | 360 | 0.0 | 11.0 | 0.00 | 0.00 | 0.00 | 25 | 1011.8 |
| 20260503211530 | 72 | 360 | 3.0 | 11.0 | 0.00 | 0.00 | 0.00 | 26 | 1011.9 |
| 20260503211053 | 72 | 360 | 0.0 | 9.0 | 0.00 | 0.00 | 0.00 | 26 | 1012.0 |
| 20260503210534 | 71 | 360 | 0.0 | 4.0 | 0.00 | 0.00 | 0.00 | 26 | 1011.9 |
| 20260503205537 | 72 | 360 | 1.0 | 10.0 | 0.00 | 0.00 | 0.00 | 26 | 1012.1 |
| 20260503205024 | 71 | 360 | 0.0 | 10.0 | 0.00 | 0.00 | 0.00 | 27 | 1012.1 |
| 20260503204526 | 71 | 360 | 3.0 | 15.0 | 0.00 | 0.00 | 0.00 | 26 | 1012.3 |
| 20260503204030 | 71 | 360 | 3.0 | 15.0 | 0.00 | 0.00 | 0.00 | 26 | 1012.4 |
| 20260503203532 | 71 | 360 | 0.0 | 5.0 | 0.00 | 0.00 | 0.00 | 26 | 1012.3 |
| 20260503203055 | 70 | 360 | 0.0 | 5.0 | 0.00 | 0.00 | 0.00 | 27 | 1012.5 |
| 20260503202616 | 70 | 360 | 0.0 | 2.0 | 0.00 | 0.00 | 0.00 | 26 | 1012.6 |
| 20260503202037 | 70 | 360 | 0.0 | 9.0 | 0.00 | 0.00 | 0.00 | 27 | 1012.7 |
| 20260503201619 | 69 | 360 | 0.0 | 9.0 | 0.00 | 0.00 | 0.00 | 27 | 1012.8 |
| 20260503201040 | 70 | 360 | 5.0 | 7.0 | 0.00 | 0.00 | 0.00 | 27 | 1012.8 |
| 20260503200602 | 69 | 360 | 1.0 | 6.0 | 0.00 | 0.00 | 0.00 | 27 | 1012.8 |
| 20260503200044 | 70 | 360 | 0.0 | 12.0 | 0.00 | 0.00 | 0.00 | 26 | 1012.9 |
| 20260503195525 | 71 | 360 | 3.0 | 12.0 | 0.00 | 0.00 | 0.00 | 26 | 1013.0 |
| 20260503195028 | 71 | 360 | 5.0 | 12.0 | 0.00 | 0.00 | 0.00 | 27 | 1013.1 |
| 20260503194530 | 70 | 360 | 0.0 | 15.0 | 0.00 | 0.00 | 0.00 | 27 | 1013.1 |
| 20260503194034 | 70 | 360 | 3.0 | 15.0 | 0.00 | 0.00 | 0.00 | 28 | 1013.2 |
| 20260503193536 | 70 | 360 | 0.0 | 11.0 | 0.00 | 0.00 | 0.00 | 26 | 1013.3 |
| 20260503193059 | 69 | 360 | 4.0 | 12.0 | 0.00 | 0.00 | 0.00 | 27 | 1013.4 |
| 20260503192541 | 69 | 360 | 5.0 | 12.0 | 0.00 | 0.00 | 0.00 | 27 | 1013.4 |
| 20260503192023 | 69 | 360 | 2.0 | 10.0 | 0.00 | 0.00 | 0.00 | 26 | 1013.5 |
| 20260503191529 | 69 | 360 | 2.0 | 9.0 | 0.00 | 0.00 | 0.00 | 26 | 1013.6 |
| 20260503191108 | 69 | 360 | 3.0 | 10.0 | 0.00 | 0.00 | 0.00 | 25 | 1013.7 |
| 20260503190608 | 69 | 360 | 3.0 | 10.0 | 0.00 | 0.00 | 0.00 | 26 | 1013.7 |
| 20260503190029 | 69 | 360 | 6.0 | 10.0 | 0.00 | 0.00 | 0.00 | 25 | 1013.9 |
| 20260503185033 | 69 | 360 | 1.0 | 4.0 | 0.00 | 0.00 | 0.00 | 25 | 1014.0 |
| 20260503184534 | 69 | 360 | 0.0 | 0.0 | 0.00 | 0.00 | 0.00 | 26 | 1014.1 |
| 20260503184057 | 69 | 360 | 0.0 | 0.0 | 0.00 | 0.00 | 0.00 | 29 | 1014.1 |
| 20260503183541 | 68 | 360 | 0.0 | 0.0 | 0.00 | 0.00 | 0.00 | 29 | 1014.1 |
| 20260503183040 | 68 | 360 | 0.0 | 0.0 | 0.00 | 0.00 | 0.00 | 28 | 1014.3 |
| 20260503182523 | 67 | 360 | 0.0 | 3.0 | 0.00 | 0.00 | 0.00 | 28 | 1014.4 |
| 20260503182047 | 68 | 360 | 0.0 | 3.0 | 0.00 | 0.00 | 0.00 | 30 | 1014.5 |
| 20260503181609 | 68 | 360 | 0.0 | 0.0 | 0.00 | 0.00 | 0.00 | 31 | 1014.5 |
| 20260503181029 | 67 | 360 | 0.0 | 0.0 | 0.00 | 0.00 | 0.00 | 32 | 1014.6 |
| 20260503180550 | 67 | 360 | 0.0 | 0.0 | 0.00 | 0.00 | 0.00 | 32 | 1014.6 |
| 20260503180112 | 67 | 360 | 0.0 | 0.0 | 0.00 | 0.00 | 0.00 | 32 | 1014.8 |
| 20260503175553 | 67 | 360 | 0.0 | 4.0 | 0.00 | 0.00 | 0.00 | 33 | 1014.9 |
| 20260503175034 | 66 | 360 | 0.0 | 4.0 | 0.00 | 0.00 | 0.00 | 33 | 1014.9 |
| 20260503174537 | 66 | 360 | 0.0 | 2.0 | 0.00 | 0.00 | 0.00 | 33 | 1015.0 |
| 20260503174101 | 66 | 360 | 0.0 | 0.0 | 0.00 | 0.00 | 0.00 | 32 | 1015.1 |
| 20260503173602 | 66 | 360 | 0.0 | 7.0 | 0.00 | 0.00 | 0.00 | 33 | 1015.1 |
| 20260503173043 | 65 | 360 | 0.0 | 7.0 | 0.00 | 0.00 | 0.00 | 34 | 1015.2 |
| 20260503172106 | 65 | 360 | 2.0 | 9.0 | 0.00 | 0.00 | 0.00 | 35 | 1015.3 |
| 20260503171606 | 65 | 360 | 4.0 | 9.0 | 0.00 | 0.00 | 0.00 | 37 | 1015.3 |
| 20260503171026 | 65 | 360 | 3.0 | 6.0 | 0.00 | 0.00 | 0.00 | 36 | 1015.5 |
| 20260503170548 | 65 | 360 | 0.0 | 4.0 | 0.00 | 0.00 | 0.00 | 36 | 1015.4 |
| 20260503150557 | 57 | 360 | 0.0 | 0.0 | 0.00 | 0.00 | 0.00 | 44 | 1016.7 |
| 20260503131102 | 44 | 360 | 0.0 | 0.0 | 0.00 | 0.00 | 0.00 | 57 | 1017.0 |
| 20260503130526 | 44 | 360 | 0.0 | 0.0 | 0.00 | 0.00 | 0.00 | 58 | 1016.9 |
| 20260503130105 | 43 | 360 | 0.0 | 0.0 | 0.00 | 0.00 | 0.00 | 61 | 1016.9 |
| 20260503110606 | 42 | 360 | 0.0 | 0.0 | 0.00 | 0.00 | 0.00 | 60 | 1016.7 |
| 20260503110107 | 42 | 360 | 0.0 | 0.0 | 0.00 | 0.00 | 0.00 | 58 | 1016.7 |
| 20260503081531 | 48 | 360 | 0.0 | 0.0 | 0.00 | 0.00 | 0.00 | 48 | 1015.1 |
| 20260503081054 | 49 | 360 | 0.0 | 0.0 | 0.00 | 0.00 | 0.00 | 47 | 1016.0 |
| 20260503080615 | 49 | 360 | 0.0 | 0.0 | 0.00 | 0.00 | 0.00 | 47 | 1015.2 |
| 20260503072552 | 50 | 360 | 0.0 | 0.0 | 0.00 | 0.00 | 0.00 | 42 | 1015.6 |
| 20260503072114 | 51 | 360 | 0.0 | 0.0 | 0.00 | 0.00 | 0.00 | 42 | 1015.6 |
| 20260503071616 | 51 | 360 | 0.0 | 0.0 | 0.00 | 0.00 | 0.00 | 42 | 1015.7 |
| 20260503071037 | 50 | 360 | 0.0 | 0.0 | 0.00 | 0.00 | 0.00 | 42 | 1015.7 |
| 20260503070538 | 50 | 360 | 0.0 | 0.0 | 0.00 | 0.00 | 0.00 | 42 | 1015.7 |